Hourly Data Report for October 14, 2013

All times are specified in Local Standard Time (LST). Add 1 hour to adjust for Daylight Saving Time where and when it is observed.

CHARLOTTETOWN A
PRINCE EDWARD ISLAND

46°17'21.000" N
63°07'09.000" W
48.50 m
8300301
71706
YYG

Download Data

Hourly Data (October 2013)
Hourly Data Report for October 14, 2013
Temp Definition
°C
Dew Point Temp Definition
°C
Rel Hum Definition
%
Wind Dir Definition
10's deg

Wind Spd Definition
km/h
Visibility Definition
km
Stn Press Definition
kPa
Hmdx Definition


Wind Chill Definition


Weather Definition


TIME
00:00 Legend Double Dagger 0.6 0.2 97 2 1 24.1 102.22     LegendNANA
01:00 Legend Double Dagger 2.2 1.0 92 16 6 24.1 102.17     LegendNANA
02:00 Legend Double Dagger -0.3 -0.7 97 25 3 24.1 102.15   -1 Mainly Clear
03:00 Legend Double Dagger 0.4 -0.2 96 20 3 24.1 102.11     LegendNANA
04:00 Legend Double Dagger 3.8 3.5 98 22 10 24.1 102.09     LegendNANA
05:00 Legend Double Dagger 4.3 4.0 98 24 10 24.1 102.10     Mainly Clear
06:00 Legend Double Dagger 2.7 2.4 98 22 6 24.1 102.08     Fog
07:00 Legend Double Dagger 4.6 4.5 99 21 11 9.7 102.07     Fog
08:00 Legend Double Dagger 7.8 7.4 97 21 10 24.1 102.06     Mainly Clear
09:00 Legend Double Dagger 9.6 8.2 91 22 13 24.1 102.05     LegendNANA
10:00 Legend Double Dagger 12.2 8.9 80 22 14 24.1 102.02     LegendNANA
11:00 Legend Double Dagger 13.3 8.8 74 23 15 24.1 101.97     Mostly Cloudy
12:00 Legend Double Dagger 14.6 8.4 66 24 19 24.1 101.89     LegendNANA
13:00 Legend Double Dagger 14.8 8.6 66 24 20 24.1 101.80     LegendNANA
14:00 Legend Double Dagger 15.4 7.8 60 23 23 24.1 101.74     Mostly Cloudy
15:00 Legend Double Dagger 15.6 6.1 53 24 24 24.1 101.72     LegendNANA
16:00 Legend Double Dagger 15.1 7.2 59 22 21 24.1 101.67     LegendNANA
17:00 Legend Double Dagger 13.9 7.5 65 23 17 24.1 101.68     Mostly Cloudy
18:00 Legend Double Dagger 12.0 7.7 75 23 11 24.1 101.68     LegendNANA
19:00 Legend Double Dagger 11.7 8.4 80 24 17 24.1 101.68     LegendNANA
20:00 Legend Double Dagger 11.8 7.9 77 23 15 24.1 101.68     Cloudy
21:00 Legend Double Dagger 11.1 8.5 84 23 16 24.1 101.65     Rain Showers
22:00 Legend Double Dagger 11.4 9.3 87 24 16 24.1 101.63     LegendNANA
23:00 Legend Double Dagger 11.6 9.5 87 24 15 24.1 101.61     Cloudy

Notes on Data Quality.

Legend

  • E = Estimated
  • M = Missing
  • NA = Not Available
  • ‡ = Partner data that is not subject to review by the National Climate Archives
Date modified: